Location: Julian California
(33.0790°N, 116.6010°W)
Time: 12:53:54
(UTC-08:00)

COSMOS 2455 - Pass Details

Date: 12 July 2018
Orbit: 902 x 907 km, 67.1° (Epoch: 18 November)

Event Time Altitude Azimuth Distance (km) Brightness Sun altitude
Rises 21:35:26 0° 343° (NNW) 3,529 7.0 -17.8°
Reaches altitude 10° 21:38:09 10° 352° (N) 2,586 6.0 -18.2°
Maximum altitude 21:43:39 37° 58° (ENE) 1,382 3.7 -19.0°
Enters shadow 21:45:54 27° 100° (E) 1,646 3.7 -19.4°
